GW6547 Weather Reports


time (UTC)temp
F
wind
direction
speed
knots
gust
knots
rain 1hr
in
rain 24hr
in
rain mn
in
humidity
%
barometer
mb
20260504110710 48 136 0.9 0.9 0.00 0.00 0.00 87 1016.9
20260504110206 47 182 0.0 0.0 0.00 0.00 0.00 87 1016.9
20260504100130 48 180 0.0 0.0 0.00 0.00 0.00 87 1017.0
20260504081524 47 172 0.0 0.0 0.00 0.00 0.00 86 1016.2
20260504081019 48 175 0.0 0.0 0.00 0.00 0.00 87 1016.4
20260504080516 48 173 0.0 0.0 0.00 0.00 0.00 87 1016.4
20260504050334 51 170 0.0 0.0 0.00 0.00 0.00 78 1016.7
20260504045831 51 178 0.0 0.0 0.00 0.00 0.00 78 1016.7
20260504045326 51 173 0.0 0.0 0.00 0.00 0.00 78 1016.7
20260504044823 51 173 0.0 0.0 0.00 0.00 0.00 79 1017.0
20260504044320 51 179 0.0 0.0 0.00 0.00 0.00 78 1016.8
20260504043817 51 174 0.0 0.0 0.00 0.00 0.00 78 1016.9
20260504043314 51 180 0.0 0.0 0.00 0.00 0.00 78 1017.0
20260504042812 51 179 0.0 0.0 0.00 0.00 0.00 78 1016.9
20260504042308 51 166 0.0 0.0 0.00 0.00 0.00 77 1016.9
20260504041804 51 191 0.0 0.0 0.00 0.00 0.00 77 1016.9
20260504041300 51 175 0.0 0.0 0.00 0.00 0.00 77 1017.1
20260504040757 51 173 0.0 0.0 0.00 0.00 0.00 77 1017.1
20260504040255 51 179 0.0 0.0 0.00 0.00 0.00 77 1017.1
20260504035750 51 173 0.0 0.0 0.00 0.00 0.00 76 1017.1
20260504035247 51 174 0.0 0.0 0.00 0.00 0.00 77 1016.9
20260504034745 51 173 0.0 0.0 0.00 0.00 0.00 78 1017.2
20260504034242 51 171 0.0 0.0 0.00 0.00 0.00 76 1017.2
20260504033740 52 172 0.0 0.0 0.00 0.00 0.00 75 1017.0
20260504033237 52 179 0.0 0.0 0.00 0.00 0.00 74 1017.1
20260504032734 52 173 0.0 0.0 0.00 0.00 0.00 74 1017.3
20260504032231 52 175 0.0 0.0 0.00 0.00 0.00 72 1017.0
20260504031727 52 176 0.0 0.0 0.00 0.00 0.00 73 1017.3
20260504031225 52 178 0.0 0.0 0.00 0.00 0.00 73 1017.2
20260504030721 52 179 0.0 0.0 0.00 0.00 0.00 74 1017.1
20260504030218 52 173 0.0 0.0 0.00 0.00 0.00 72 1017.3
20260504025714 53 172 0.0 0.0 0.00 0.00 0.00 73 1017.1
20260504025211 53 174 0.0 0.0 0.00 0.00 0.00 71 1017.3
20260504024709 53 169 0.0 0.0 0.00 0.00 0.00 70 1017.0
20260504024205 53 174 0.0 0.0 0.00 0.00 0.00 70 1016.9
20260504023702 53 176 0.0 0.0 0.00 0.00 0.00 68 1017.0
20260504023157 53 176 0.0 0.0 0.00 0.00 0.00 69 1016.8
20260504022654 54 174 0.0 0.0 0.00 0.00 0.00 70 1016.9
20260504022150 54 172 0.0 0.0 0.00 0.00 0.00 68 1016.6
20260504021649 54 171 0.0 0.0 0.00 0.00 0.00 67 1016.6
20260504021145 55 173 0.0 0.0 0.00 0.00 0.00 66 1016.8
20260504020642 55 178 0.0 0.0 0.00 0.00 0.00 64 1016.7
20260504020137 55 177 0.0 0.0 0.00 0.00 0.00 64 1016.7
20260504015635 55 182 0.0 0.0 0.00 0.00 0.00 62 1016.4
20260504015131 55 174 0.0 0.0 0.00 0.00 0.00 62 1016.3
20260504014626 56 179 0.0 0.0 0.00 0.00 0.00 61 1016.4
20260504014124 56 173 0.0 0.0 0.00 0.00 0.00 61 1016.3
20260504013621 56 175 0.0 0.0 0.00 0.00 0.00 62 1016.4
20260504013118 57 169 0.0 0.0 0.00 0.00 0.00 60 1016.1
20260504012615 57 181 0.0 0.0 0.00 0.00 0.00 58 1016.1
20260504012113 57 175 0.0 0.0 0.00 0.00 0.00 59 1016.4
20260504011610 57 174 0.0 0.0 0.00 0.00 0.00 57 1015.9
20260504011106 57 177 0.0 0.0 0.00 0.00 0.00 60 1016.2
20260504010602 58 175 0.0 0.0 0.00 0.00 0.00 57 1016.0
20260504010058 58 172 0.0 0.0 0.00 0.00 0.00 56 1015.9
20260504005555 59 171 0.0 0.0 0.00 0.00 0.00 55 1015.8
20260504005052 59 173 0.0 0.0 0.00 0.00 0.00 54 1015.9
20260504004550 59 177 0.0 0.0 0.00 0.00 0.00 52 1015.9
20260504004047 60 175 0.0 0.0 0.00 0.00 0.00 51 1015.9
20260504003543 60 173 0.0 0.0 0.00 0.00 0.00 50 1015.9
20260504003040 60 174 0.0 0.0 0.00 0.00 0.00 50 1015.8
20260504002537 61 175 0.0 0.0 0.00 0.00 0.00 49 1015.8